Total_Precipitation_Accumulation
0.99 1.01 1.00 0.98 0.88 0.87 0.92 0.93 0.91 0.89 0.87 0.79 0.73 0.70 0.75 0.72 0.66 0.70 0.72 0.72 0.78 0.88 0.99 1.07 1.15 1.35 1.57 1.52 1.41 1.26 1.13 1.00 0.83 0.69 0.50 0.33 0.30 0.26 0.23 0.15 0.11 0.12 0.11
0.92 0.95 0.94 0.85 0.80 0.76 0.73 0.71 0.64 0.61 0.60 0.62 0.66 0.61 0.61 0.64 0.63 0.68 0.70 0.69 0.66 0.70 0.75 0.82 0.94 1.19 1.48 1.61 1.62 1.47 1.29 1.14 1.07 0.96 0.69 0.43 0.37 0.40 0.41 0.34 0.23 0.19 0.18
1.00 0.86 0.78 0.74 0.70 0.68 0.59 0.55 0.53 0.48 0.45 0.45 0.53 0.52 0.55 0.60 0.62 0.65 0.66 0.68 0.70 0.74 0.80 0.80 0.80 0.92 1.11 1.27 1.39 1.42 1.34 1.25 1.21 1.05 0.83 0.63 0.52 0.43 0.41 0.36 0.32 0.34 0.29
1.11 1.01 0.86 0.77 0.69 0.63 0.55 0.53 0.51 0.48 0.49 0.53 0.61 0.63 0.59 0.53 0.55 0.62 0.62 0.60 0.62 0.65 0.66 0.68 0.69 0.68 0.77 0.91 1.03 1.14 1.26 1.34 1.33 1.22 1.01 0.74 0.67 0.52 0.44 0.44 0.45 0.47 0.45
1.09 1.07 0.92 0.86 0.78 0.65 0.59 0.60 0.57 0.60 0.56 0.56 0.62 0.70 0.78 0.73 0.69 0.74 0.68 0.64 0.62 0.61 0.61 0.56 0.58 0.57 0.57 0.64 0.69 0.86 1.11 1.29 1.33 1.31 1.21 0.93 0.71 0.57 0.42 0.45 0.51 0.59 0.57
0.75 0.81 0.77 0.69 0.61 0.58 0.57 0.55 0.52 0.50 0.46 0.46 0.48 0.54 0.63 0.67 0.85 0.78 0.59 0.53 0.55 0.58 0.61 0.57 0.54 0.46 0.42 0.45 0.49 0.53 0.70 0.86 1.00 1.05 1.05 0.90 0.75 0.63 0.57 0.51 0.45 0.42 0.42
0.47 0.56 0.55 0.49 0.43 0.40 0.45 0.45 0.43 0.39 0.40 0.37 0.36 0.36 0.41 0.56 0.61 0.44 0.41 0.43 0.50 0.56 0.61 0.61 0.55 0.49 0.45 0.44 0.41 0.38 0.39 0.46 0.56 0.71 0.80 0.81 0.86 0.73 0.61 0.52 0.48 0.43 0.38
0.22 0.26 0.27 0.28 0.27 0.29 0.31 0.32 0.32 0.31 0.30 0.29 0.36 0.42 0.44 0.44 0.47 0.36 0.34 0.41 0.53 0.58 0.55 0.51 0.53 0.52 0.50 0.49 0.39 0.41 0.40 0.42 0.45 0.41 0.53 0.71 0.81 0.90 0.80 0.64 0.58 0.49 0.42
0.06 0.08 0.10 0.12 0.14 0.17 0.18 0.21 0.29 0.33 0.34 0.36 0.47 0.54 0.47 0.39 0.40 0.37 0.41 0.49 0.60 0.68 0.60 0.51 0.53 0.54 0.64 0.59 0.46 0.51 0.49 0.48 0.47 0.52 0.55 0.57 0.59 0.65 0.71 0.65 0.58 0.51 0.44
0.00 0.00 0.01 0.01 0.02 0.05 0.08 0.11 0.17 0.24 0.30 0.37 0.38 0.35 0.36 0.41 0.45 0.39 0.49 0.60 0.68 0.79 0.73 0.64 0.76 0.69 0.64 0.55 0.44 0.57 0.61 0.47 0.42 0.45 0.43 0.40 0.38 0.40 0.47 0.51 0.60 0.61 0.52
0.00 0.00 0.00 0.00 0.00 0.01 0.02 0.03 0.06 0.11 0.14 0.16 0.17 0.20 0.27 0.43 0.48 0.46 0.61 0.66 0.68 0.78 0.78 0.72 0.59 0.65 0.52 0.46 0.42 0.44 0.59 0.47 0.40 0.43 0.42 0.38 0.32 0.30 0.32 0.38 0.45 0.49 0.53
0.00 0.00 0.00 0.00 0.00 0.01 0.01 0.02 0.02 0.04 0.06 0.09 0.12 0.15 0.21 0.28 0.34 0.36 0.43 0.53 0.59 0.68 0.70 0.61 0.50 0.64 0.50 0.37 0.32 0.34 0.45 0.47 0.41 0.45 0.44 0.38 0.32 0.28 0.25 0.27 0.30 0.32 0.34
0.00 0.00 0.00 0.00 0.01 0.01 0.01 0.01 0.02 0.03 0.05 0.07 0.10 0.16 0.22 0.26 0.25 0.25 0.28 0.35 0.45 0.55 0.57 0.60 0.58 0.52 0.37 0.28 0.34 0.37 0.40 0.45 0.47 0.46 0.39 0.28 0.22 0.20 0.23 0.28 0.33 0.35 0.35
0.00 0.00 0.00 0.01 0.01 0.01 0.01 0.02 0.02 0.02 0.05 0.08 0.14 0.19 0.23 0.25 0.24 0.27 0.32 0.34 0.38 0.41 0.43 0.48 0.48 0.39 0.33 0.30 0.32 0.35 0.37 0.42 0.45 0.38 0.26 0.15 0.13 0.14 0.17 0.21 0.29 0.39 0.47
0.00 0.00 0.00 0.01 0.01 0.01 0.01 0.01 0.02 0.02 0.04 0.10 0.13 0.16 0.16 0.16 0.17 0.22 0.33 0.40 0.48 0.54 0.53 0.46 0.45 0.45 0.40 0.35 0.31 0.30 0.30 0.29 0.28 0.25 0.23 0.19 0.16 0.17 0.13 0.11 0.14 0.19 0.26
0.00 0.00 0.00 0.01 0.01 0.01 0.02 0.02 0.01 0.01 0.02 0.04 0.05 0.07 0.12 0.13 0.09 0.10 0.19 0.32 0.46 0.64 0.86 0.82 0.78 0.74 0.67 0.52 0.35 0.24 0.19 0.20 0.21 0.20 0.21 0.20 0.16 0.14 0.13 0.11 0.11 0.12 0.16
0.00 0.00 0.00 0.00 0.01 0.01 0.03 0.06 0.08 0.05 0.01 0.01 0.01 0.04 0.09 0.13 0.11 0.15 0.21 0.25 0.37 0.63 0.97 0.95 0.90 0.75 0.61 0.51 0.35 0.20 0.13 0.12 0.13 0.13 0.14 0.14 0.13 0.11 0.10 0.08 0.07 0.08 0.09
0.00 0.00 0.00 0.01 0.01 0.01 0.02 0.06 0.16 0.21 0.16 0.06 0.01 0.02 0.07 0.13 0.19 0.26 0.35 0.45 0.50 0.60 0.69 0.67 0.58 0.49 0.40 0.28 0.23 0.18 0.10 0.09 0.11 0.11 0.10 0.10 0.08 0.07 0.06 0.06 0.06 0.05 0.05
0.00 0.00 0.02 0.04 0.02 0.01 0.02 0.09 0.14 0.06 0.04 0.06 0.05 0.02 0.02 0.05 0.10 0.16 0.26 0.36 0.37 0.37 0.35 0.29 0.23 0.19 0.17 0.12 0.11 0.10 0.06 0.05 0.06 0.07 0.07 0.07 0.07 0.06 0.05 0.04 0.04 0.05 0.05
0.00 0.00 0.01 0.06 0.06 0.02 0.04 0.08 0.05 0.03 0.04 0.05 0.05 0.03 0.02 0.03 0.06 0.09 0.13 0.15 0.15 0.15 0.13 0.11 0.08 0.05 0.06 0.05 0.03 0.03 0.03 0.03 0.03 0.03 0.04 0.04 0.04 0.04 0.04 0.04 0.04 0.05 0.05
0.00 0.00 0.00 0.02 0.05 0.03 0.03 0.04 0.02 0.02 0.03 0.04 0.03 0.01 0.02 0.05 0.06 0.07 0.06 0.05 0.05 0.05 0.06 0.06 0.03 0.02 0.01 0.01 0.02 0.03 0.03 0.03 0.03 0.03 0.03 0.03 0.03 0.03 0.03 0.03 0.04 0.05 0.05
0.00 0.00 0.00 0.03 0.03 0.02 0.01 0.03 0.04 0.02 0.02 0.02 0.02 0.01 0.03 0.08 0.07 0.04 0.03 0.02 0.02 0.02 0.05 0.07 0.06 0.06 0.02 0.01 0.01 0.01 0.01 0.02 0.02 0.02 0.03 0.03 0.03 0.03 0.02 0.03 0.04 0.05 0.05
0.00 0.00 0.00 0.02 0.03 0.01 0.00 0.01 0.04 0.05 0.03 0.03 0.04 0.02 0.03 0.06 0.07 0.07 0.05 0.05 0.07 0.08 0.05 0.03 0.05 0.05 0.02 0.01 0.01 0.01 0.01 0.01 0.02 0.02 0.02 0.02 0.02 0.02 0.03 0.03 0.04 0.05 0.06
0.00 0.00 0.00 0.01 0.03 0.02 0.02 0.02 0.02 0.02 0.03 0.05 0.05 0.04 0.04 0.06 0.08 0.06 0.04 0.07 0.08 0.07 0.05 0.03 0.02 0.01 0.01 0.01 0.01 0.01 0.01 0.01 0.01 0.01 0.02 0.02 0.03 0.03 0.03 0.04 0.06 0.09 0.14
0.00 0.00 0.00 0.01 0.03 0.02 0.02 0.02 0.01 0.01 0.02 0.05 0.03 0.03 0.02 0.02 0.03 0.02 0.02 0.03 0.04 0.02 0.02 0.01 0.01 0.01 0.00 0.00 0.00 0.00 0.01 0.03 0.04 0.03 0.02 0.02 0.04 0.05 0.05 0.08 0.12 0.15 0.19
0.00 0.00 0.00 0.00 0.01 0.01 0.01 0.01 0.01 0.01 0.02 0.02 0.01 0.03 0.02 0.02 0.02 0.01 0.01 0.01 0.01 0.01 0.01 0.00 0.00 0.00 0.00 0.00 0.00 0.00 0.01 0.02 0.03 0.03 0.02 0.03 0.04 0.04 0.06 0.07 0.09 0.11 0.15